Weather History for Mount Airy, NC

Change the Weather History Date:

Friday, February 1, 2013

  Actual Average (KINT) Record (KINT)
Temperature  
Mean Temperature 28 °F -  
Max Temperature 36 °F 47 °F 77 °F (1975)
Min Temperature 19 °F 31 °F -1 °F (1966)
Degree Days  
Heating Degree Days 38    
Moisture  
Dew Point 8 °F    
Average Humidity 42    
Maximum Humidity 80    
Minimum Humidity 23    
Precipitation  
Precipitation 0.00 in - - ()
Sea Level Pressure  
Sea Level Pressure 30.14 in    
Wind  
Wind Speed 6 mph (NW)    
Max Wind Speed 17 mph    
Max Gust Speed 31 mph    
Visibility 10 miles    
Events Snow    
Averages and records for this station are not official NWS values.
T = Trace of Precipitation, MM = Missing Value Source: NWS Daily Summary

Daily Weather History Graph

Daily Weather History Graph

Search for Another Location

Airport:

Trip Planner

Search our weather history database for the weather conditions in past years. The results will help you decide how hot, cold, wet, or windy it might be!

Date:

Astronomy

Feb. 01, 2013 Rise Set
Actual Time 7:23 AM EST 5:48 PM EST
Civil Twilight 6:56 AM EST 6:15 PM EST
Nautical Twilight 6:25 AM EST 6:46 PM EST
Astronomical Twilight 5:55 AM EST 7:16 PM EST
Moon 11:41 PM EST (2/1) 10:07 AM EST (2/1)
Length of Visible Light 11h 19m
Length of Day
10h 25m
Waning Gibbous, 70% of the Moon is Illuminated
Feb 1
Waning Gibbous
Feb 3
Last Quarter
Feb 10
New
Feb 17
First Quarter
Feb 25
Full

Hourly Weather History & Observations

Time (EST) Temp. Windchill Dew Point Humidity Pressure Visibility Wind Dir Wind Speed Gust Speed Precip Events Conditions
12:15 AM 30.9 °F 27.5 °F 19.0 °F 61% 29.92 in 10.0 mi WSW 3.5 mph - N/A   Scattered Clouds
12:35 AM 32.2 °F 28.9 °F 20.1 °F 61% 29.91 in 10.0 mi SSW 3.5 mph - N/A   Scattered Clouds
12:55 AM 33.1 °F - 21.2 °F 62% 29.90 in 10.0 mi Calm Calm - N/A   Scattered Clouds
1:15 AM 32.0 °F - 19.2 °F 59% 29.89 in 10.0 mi Calm Calm - N/A   Scattered Clouds
1:35 AM 30.9 °F - 17.6 °F 58% 29.87 in 10.0 mi Calm Calm - N/A   Scattered Clouds
1:55 AM 31.5 °F - 19.9 °F 62% 29.86 in 10.0 mi Calm Calm - N/A   Mostly Cloudy
2:15 AM 32.0 °F - 20.8 °F 63% 29.85 in 10.0 mi Calm Calm - N/A   Overcast
2:35 AM 32.4 °F 27.9 °F 21.6 °F 64% 29.84 in 10.0 mi SW 4.6 mph - N/A   Overcast
2:55 AM 33.8 °F 29.6 °F 22.8 °F 64% 29.83 in 10.0 mi SW 4.6 mph - N/A   Overcast
3:15 AM 34.7 °F 31.8 °F 23.7 °F 64% 29.83 in 10.0 mi WSW 3.5 mph - N/A   Overcast
3:35 AM 35.1 °F - 23.4 °F 62% 29.83 in 10.0 mi Calm Calm - N/A   Overcast
4:15 AM 33.4 °F 30.4 °F 22.3 °F 64% 29.82 in 10.0 mi SW 3.5 mph - N/A   Overcast
4:35 AM 34.5 °F 29.4 °F 24.3 °F 66% 29.83 in 10.0 mi WSW 5.8 mph - N/A   Overcast
4:55 AM 36.5 °F 31.0 °F 25.0 °F 63% 29.85 in 10.0 mi West 6.9 mph - N/A   Overcast
5:15 AM 36.3 °F 27.1 °F 30.7 °F 80% 29.89 in 7.0 mi NW 15.0 mph 26.5 mph N/A Snow Light Snow
5:35 AM 33.8 °F 23.9 °F 26.2 °F 74% 29.92 in 10.0 mi NW 15.0 mph 21.9 mph N/A   Overcast
6:15 AM 31.8 °F 21.8 °F 18.3 °F 57% 29.97 in 10.0 mi WNW 13.8 mph 31.1 mph N/A   Clear
6:35 AM 30.9 °F 19.4 °F 13.5 °F 48% 29.99 in 10.0 mi WNW 17.3 mph 25.3 mph N/A   Clear
6:55 AM 28.9 °F 17.7 °F 12.0 °F 49% 30.02 in 10.0 mi WNW 15.0 mph 31.1 mph N/A   Clear
7:15 AM 28.4 °F 17.0 °F 10.6 °F 47% 30.04 in 10.0 mi WNW 15.0 mph 25.3 mph N/A   Clear
7:35 AM 27.5 °F 16.8 °F 6.3 °F 41% 30.06 in 10.0 mi WNW 12.7 mph 26.5 mph N/A   Clear
8:15 AM 27.3 °F 17.7 °F 1.9 °F 34% 30.11 in 10.0 mi WNW 10.4 mph 27.6 mph N/A   Clear
8:35 AM 27.3 °F 18.4 °F 3.9 °F 37% 30.13 in 10.0 mi WNW 9.2 mph 19.6 mph N/A   Clear
8:55 AM 27.1 °F 17.5 °F 3.9 °F 37% 30.15 in 10.0 mi WNW 10.4 mph 20.7 mph N/A   Clear
9:15 AM 27.7 °F 18.2 °F 3.7 °F 36% 30.16 in 10.0 mi WNW 10.4 mph 21.9 mph N/A   Clear
9:35 AM 28.0 °F 19.3 °F 3.9 °F 36% 30.16 in 10.0 mi West 9.2 mph 21.9 mph N/A   Clear
9:55 AM 28.8 °F 20.9 °F 4.1 °F 35% 30.18 in 10.0 mi West 8.1 mph 17.3 mph N/A   Clear
10:15 AM 29.1 °F 21.3 °F 1.8 °F 31% 30.19 in 10.0 mi NW 8.1 mph 19.6 mph N/A   Clear
10:35 AM 29.7 °F 20.1 °F 2.3 °F 31% 30.20 in 10.0 mi NNW 11.5 mph 18.4 mph N/A   Clear
10:55 AM 30.0 °F 23.2 °F 2.8 °F 31% 30.22 in 10.0 mi North 6.9 mph - N/A   Clear
11:15 AM 30.9 °F 22.8 °F 2.3 °F 30% 30.22 in 10.0 mi NNW 9.2 mph 17.3 mph N/A   Clear
11:35 AM 30.2 °F 22.6 °F 2.3 °F 31% 30.23 in 10.0 mi NNW 8.1 mph 17.3 mph N/A   Clear
11:55 AM 31.6 °F 23.7 °F 3.2 °F 30% 30.23 in 10.0 mi NW 9.2 mph - N/A   Clear
12:15 PM 32.4 °F 26.0 °F 4.1 °F 30% 30.23 in 10.0 mi NNW 6.9 mph - N/A   Clear
12:35 PM 32.4 °F 26.0 °F 2.3 °F 28% 30.22 in 10.0 mi NNW 6.9 mph - N/A   Clear
12:55 PM 33.3 °F 26.4 °F 4.3 °F 30% 30.21 in 10.0 mi NW 8.1 mph - N/A   Clear
1:15 PM 34.3 °F 26.5 °F 3.4 °F 27% 30.21 in 10.0 mi NW 10.4 mph 16.1 mph N/A   Clear
1:35 PM 34.2 °F 28.2 °F 2.7 °F 26% 30.21 in 10.0 mi NNW 6.9 mph 18.4 mph N/A   Clear
1:55 PM 34.3 °F 25.9 °F 2.7 °F 26% 30.21 in 10.0 mi NNW 11.5 mph 17.3 mph N/A   Clear
2:15 PM 33.6 °F 24.6 °F 1.8 °F 26% 30.22 in 10.0 mi NNW 12.7 mph 19.6 mph N/A   Clear
2:35 PM 33.8 °F 24.3 °F -0.6 °F 23% 30.22 in 10.0 mi NW 13.8 mph 19.6 mph N/A   Clear
2:55 PM 34.0 °F 26.0 °F 0.5 °F 24% 30.22 in 10.0 mi North 10.4 mph 16.1 mph N/A   Clear
3:15 PM 34.0 °F 28.0 °F -0.4 °F 23% 30.23 in 10.0 mi NNW 6.9 mph - N/A   Clear
3:35 PM 33.6 °F 27.5 °F -0.8 °F 23% 30.23 in 10.0 mi NNW 6.9 mph - N/A   Clear
3:55 PM 34.0 °F 26.6 °F -0.8 °F 23% 30.23 in 10.0 mi NNW 9.2 mph - N/A   Clear
4:15 PM 33.8 °F 28.6 °F -0.8 °F 23% 30.23 in 10.0 mi NNW 5.8 mph - N/A   Clear
4:35 PM 33.4 °F 28.1 °F -0.2 °F 24% 30.24 in 10.0 mi NW 5.8 mph - N/A   Clear
4:55 PM 33.1 °F 27.7 °F -0.0 °F 24% 30.24 in 10.0 mi WNW 5.8 mph - N/A   Clear
5:15 PM 32.2 °F 26.7 °F -0.6 °F 25% 30.25 in 10.0 mi NNW 5.8 mph - N/A   Clear
5:35 PM 30.7 °F 24.1 °F -1.1 °F 26% 30.25 in 10.0 mi NW 6.9 mph - N/A   Clear
6:15 PM 27.1 °F 20.7 °F 1.4 °F 33% 30.26 in 10.0 mi WNW 5.8 mph - N/A   Clear
6:35 PM 27.0 °F 23.0 °F 1.4 °F 33% 30.27 in 10.0 mi WNW 3.5 mph - N/A   Clear
6:55 PM 25.5 °F - -0.2 °F 33% 30.28 in 10.0 mi Calm Calm - N/A   Clear
7:15 PM 24.6 °F 20.3 °F 0.5 °F 35% 30.28 in 10.0 mi WNW 3.5 mph - N/A   Clear
7:35 PM 25.5 °F 21.3 °F 3.2 °F 38% 30.28 in 10.0 mi WNW 3.5 mph - N/A   Clear
7:55 PM 25.7 °F 20.1 °F 3.0 °F 38% 30.30 in 10.0 mi NW 4.6 mph - N/A   Clear
8:15 PM 25.0 °F - 2.1 °F 37% 30.30 in 10.0 mi Calm Calm - N/A   Clear
8:35 PM 23.9 °F 19.5 °F 2.8 °F 40% 30.32 in 10.0 mi NW 3.5 mph - N/A   Clear
8:55 PM 23.5 °F - 3.4 °F 42% 30.32 in 10.0 mi Calm Calm - N/A   Clear
9:15 PM 23.0 °F - 1.0 °F 39% 30.32 in 10.0 mi Calm Calm - N/A   Clear
9:55 PM 21.7 °F - 1.2 °F 41% 30.32 in 10.0 mi Calm Calm - N/A   Clear
10:15 PM 20.8 °F - 0.9 °F 42% 30.32 in 10.0 mi Calm Calm - N/A   Clear
10:35 PM 20.8 °F - 4.6 °F 50% 30.32 in 10.0 mi Calm Calm - N/A   Clear
10:55 PM 19.9 °F - 0.9 °F 44% 30.32 in 10.0 mi Calm Calm - N/A   Clear
11:15 PM 20.8 °F 16.0 °F 4.8 °F 50% 30.32 in 10.0 mi North 3.5 mph - N/A   Clear
11:35 PM 22.1 °F 15.9 °F 5.0 °F 48% 30.31 in 10.0 mi North 4.6 mph - N/A   Clear
11:55 PM 22.5 °F 17.8 °F 4.1 °F 45% 30.31 in 10.0 mi NNW 3.5 mph - N/A   Clear